Madera North
DateTemperatureDew Point
05/02 - 08:00 PM71.1°56.6°
05/02 - 07:45 PM72.2°56.4°
05/02 - 07:30 PM73.5°57.6°
05/02 - 07:15 PM74.8°58.2°
05/02 - 07:00 PM76.0°57.9°
05/02 - 06:45 PM77.0°57.8°
05/02 - 06:30 PM77.9°58.2°
05/02 - 06:15 PM78.9°58.3°
05/02 - 06:00 PM80.2°58.6°
05/02 - 05:45 PM82.1°58.7°
05/02 - 05:30 PM82.0°58.2°
05/02 - 05:15 PM82.1°57.8°
05/02 - 05:00 PM83.8°58.6°
05/02 - 04:45 PM84.0°58.1°
05/02 - 04:30 PM84.0°57.3°
05/02 - 04:15 PM85.1°56.5°
05/02 - 04:00 PM84.3°56.9°
05/02 - 03:45 PM83.6°57.4°
05/02 - 03:30 PM83.0°58.2°
05/02 - 03:15 PM82.2°58.8°
05/02 - 03:00 PM83.3°57.2°
05/02 - 02:45 PM83.5°56.3°
05/02 - 02:30 PM83.6°56.7°
05/02 - 02:15 PM84.3°56.9°
05/02 - 02:00 PM84.5°57.3°
05/02 - 01:45 PM84.0°56.8°
05/02 - 01:30 PM83.8°57.6°
05/02 - 01:15 PM83.7°58.1°
05/02 - 01:00 PM82.6°58.6°
05/02 - 12:45 PM81.9°58.5°
05/02 - 12:30 PM82.1°58.8°
05/02 - 12:15 PM81.7°58.9°
05/02 - 12:00 PM81.5°58.8°
05/02 - 11:45 AM80.4°57.6°
05/02 - 11:30 AM80.0°58.4°
05/02 - 11:15 AM79.0°58.5°
05/02 - 11:00 AM78.2°58.4°
05/02 - 10:45 AM77.5°57.8°
05/02 - 10:30 AM76.4°57.8°
05/02 - 10:15 AM76.1°57.6°
05/02 - 10:00 AM74.3°57.6°
05/02 - 09:45 AM72.4°57.7°
05/02 - 09:30 AM70.7°57.6°
05/02 - 09:15 AM68.8°57.4°
05/02 - 09:00 AM66.6°56.6°
05/02 - 08:45 AM64.7°55.6°
05/02 - 08:30 AM63.5°55.2°
05/02 - 08:15 AM62.4°54.6°
05/02 - 08:00 AM61.5°54.6°
05/02 - 07:45 AM60.7°54.2°
05/02 - 07:30 AM59.4°54.5°
05/02 - 07:15 AM58.1°54.7°
05/02 - 07:00 AM56.8°54.4°
05/02 - 06:45 AM55.6°54.1°
05/02 - 06:30 AM54.5°53.4°
05/02 - 06:15 AM53.6°52.5°
05/02 - 06:00 AM53.3°52.2°
05/02 - 05:45 AM53.4°52.2°
05/02 - 05:30 AM53.5°52.2°
05/02 - 05:15 AM53.7°52.4°
05/02 - 05:00 AM53.7°52.3°
05/02 - 04:45 AM53.4°51.8°
05/02 - 04:30 AM54.1°52.4°
05/02 - 04:15 AM54.6°53.0°
05/02 - 04:00 AM54.8°53.1°
05/02 - 03:45 AM55.1°53.3°
05/02 - 03:30 AM55.0°53.0°
05/02 - 03:15 AM55.9°53.8°
05/02 - 03:00 AM56.6°54.2°
05/02 - 02:45 AM57.1°54.5°
05/02 - 02:30 AM57.6°55.0°
05/02 - 02:15 AM57.8°55.1°
05/02 - 02:00 AM58.2°55.2°
05/02 - 01:45 AM58.9°55.5°
05/02 - 01:30 AM59.3°55.8°
05/02 - 01:15 AM59.8°55.9°
05/02 - 01:00 AM60.7°55.9°
05/02 - 12:45 AM61.6°56.3°
05/02 - 12:30 AM62.4°56.6°
05/02 - 12:15 AM63.2°56.9°
05/02 - 12:00 AM63.4°57.4°
05/01 - 11:45 PM64.1°57.9°
05/01 - 11:30 PM64.9°58.4°
05/01 - 11:15 PM65.4°58.7°
05/01 - 11:00 PM65.6°58.7°
05/01 - 10:45 PM66.4°58.8°
05/01 - 10:30 PM67.3°58.9°
05/01 - 10:15 PM68.1°59.0°
05/01 - 10:00 PM68.8°59.0°
05/01 - 09:45 PM69.6°59.0°
05/01 - 09:30 PM70.1°58.9°
05/01 - 09:15 PM70.1°58.5°
05/01 - 09:00 PM70.4°58.2°
05/01 - 08:45 PM70.8°58.1°
05/01 - 08:30 PM71.0°57.9°
05/01 - 08:15 PM71.3°57.9°
05/01 - 08:00 PM72.1°57.6°
05/01 - 07:45 PM73.5°57.4°
05/01 - 07:30 PM75.4°57.1°
05/01 - 07:15 PM77.6°56.2°
05/01 - 07:00 PM80.0°55.1°
05/01 - 06:45 PM81.4°55.4°
05/01 - 06:30 PM82.2°55.7°
05/01 - 06:15 PM83.2°55.4°
05/01 - 06:00 PM83.6°56.3°
05/01 - 05:45 PM84.4°54.7°
05/01 - 05:30 PM84.6°52.6°
05/01 - 05:15 PM85.0°52.7°
05/01 - 05:00 PM85.2°54.0°
05/01 - 04:45 PM86.0°55.0°
05/01 - 04:30 PM86.0°53.9°
05/01 - 04:15 PM85.8°54.5°
05/01 - 04:00 PM86.2°54.7°
05/01 - 03:45 PM86.0°54.3°
05/01 - 03:30 PM86.1°54.7°
05/01 - 03:15 PM85.5°54.6°
05/01 - 03:00 PM85.8°55.3°
05/01 - 02:45 PM85.6°55.0°
05/01 - 02:30 PM85.1°56.3°
05/01 - 02:15 PM84.5°56.1°
05/01 - 02:00 PM84.1°56.0°
05/01 - 01:45 PM83.9°56.3°
05/01 - 01:30 PM83.0°56.1°
05/01 - 01:15 PM82.4°55.6°
05/01 - 01:00 PM82.0°55.4°
05/01 - 12:45 PM81.6°56.6°
05/01 - 12:30 PM80.3°55.8°
05/01 - 12:15 PM79.9°56.3°
05/01 - 12:00 PM79.0°55.8°
05/01 - 11:45 AM78.7°55.7°
05/01 - 11:30 AM77.6°55.6°
05/01 - 11:15 AM77.0°55.7°
05/01 - 11:00 AM75.6°55.0°
05/01 - 10:45 AM74.5°54.8°
05/01 - 10:30 AM73.9°54.2°
05/01 - 10:15 AM73.3°53.9°
05/01 - 10:00 AM72.5°54.7°
05/01 - 09:45 AM71.2°54.1°
05/01 - 09:30 AM69.9°54.2°
05/01 - 09:15 AM68.9°54.0°
05/01 - 09:00 AM67.7°54.0°
05/01 - 08:45 AM66.2°53.6°
05/01 - 08:30 AM64.8°53.2°
05/01 - 08:15 AM63.8°53.2°
05/01 - 08:00 AM62.6°53.2°
05/01 - 07:45 AM61.4°54.0°
05/01 - 07:30 AM59.9°53.9°
05/01 - 07:15 AM58.7°53.8°
05/01 - 07:00 AM56.9°53.5°
05/01 - 06:45 AM54.7°52.2°
05/01 - 06:30 AM53.2°51.1°
05/01 - 06:15 AM51.3°49.8°
05/01 - 06:00 AM50.4°49.1°
05/01 - 05:45 AM50.0°48.5°
05/01 - 05:30 AM50.0°48.6°
05/01 - 05:15 AM49.7°48.1°
05/01 - 05:00 AM49.7°48.0°
05/01 - 04:45 AM50.9°49.2°
05/01 - 04:30 AM51.1°49.5°
05/01 - 04:15 AM51.4°49.7°
05/01 - 04:00 AM51.1°49.1°
05/01 - 03:45 AM52.0°50.1°
05/01 - 03:30 AM52.5°50.5°
05/01 - 03:15 AM52.0°49.7°
05/01 - 03:00 AM53.0°50.4°
05/01 - 02:45 AM54.5°52.0°
05/01 - 02:30 AM54.8°52.2°
05/01 - 02:15 AM55.0°52.3°
05/01 - 02:00 AM55.5°52.6°
05/01 - 01:45 AM56.0°52.8°
05/01 - 01:30 AM56.1°52.8°
05/01 - 01:15 AM56.8°52.9°
05/01 - 01:00 AM57.3°52.5°
05/01 - 12:45 AM58.7°53.7°
05/01 - 12:30 AM60.1°54.0°
05/01 - 12:15 AM61.1°54.3°
05/01 - 12:00 AM61.1°54.5°
04/30 - 11:45 PM60.4°54.8°
04/30 - 11:30 PM60.9°55.0°
04/30 - 11:15 PM62.1°55.3°
04/30 - 11:00 PM62.5°55.5°
04/30 - 10:45 PM62.5°55.6°
04/30 - 10:30 PM62.7°55.7°
04/30 - 10:15 PM63.4°55.6°
04/30 - 10:00 PM63.9°55.6°
04/30 - 09:45 PM64.6°55.7°
04/30 - 09:30 PM66.2°55.7°
04/30 - 09:15 PM67.5°55.5°
04/30 - 09:00 PM67.6°55.6°
04/30 - 08:45 PM67.6°55.8°